Time,TemperatureF,DewpointF,PressureIn,WindDirection,WindDirectionDegrees,WindSpeedMPH,WindSpeedGustMPH,Humidity,HourlyPrecipIn,Conditions,Clouds,dailyrainin,SolarRadiationWatts/m^2,SoftwareType,DateUTC
2013-11-05 00:03:00,57.9,29.7,30.22,ENE,74,0.0,3.0,34,0.00,,,0.00,0.0,meteohub,2013-11-05 08:03:00,
2013-11-05 00:08:00,57.7,29.5,30.23,ENE,74,0.0,3.0,34,0.00,,,0.00,0.0,meteohub,2013-11-05 08:08:00,
2013-11-05 00:13:00,57.7,29.5,30.23,ENE,74,0.0,3.0,34,0.00,,,0.00,0.0,meteohub,2013-11-05 08:13:00,
2013-11-05 00:18:00,57.7,29.5,30.22,ENE,74,0.0,3.0,34,0.00,,,0.00,0.0,meteohub,2013-11-05 08:18:00,
2013-11-05 00:24:00,57.7,29.5,30.22,ENE,74,0.0,2.0,34,0.00,,,0.00,0.0,meteohub,2013-11-05 08:24:00,
2013-11-05 00:29:00,57.7,29.5,30.22,ENE,74,0.0,2.0,34,0.00,,,0.00,0.0,meteohub,2013-11-05 08:29:00,
2013-11-05 00:34:00,57.2,30.6,30.23,ENE,74,0.0,2.0,36,0.00,,,0.00,0.0,meteohub,2013-11-05 08:34:00,
2013-11-05 00:39:00,56.7,29.3,30.22,ENE,74,0.0,2.0,35,0.00,,,0.00,0.0,meteohub,2013-11-05 08:39:00,
2013-11-05 00:44:00,55.9,28.8,30.22,ENE,74,0.0,1.0,35,0.00,,,0.00,0.0,meteohub,2013-11-05 08:44:00,
2013-11-05 00:49:00,54.9,28.4,30.22,ENE,74,0.0,1.0,36,0.00,,,0.00,0.0,meteohub,2013-11-05 08:49:00,
2013-11-05 00:54:00,54.1,28.4,30.22,ENE,74,0.0,1.0,37,0.00,,,0.00,0.0,meteohub,2013-11-05 08:54:00,
2013-11-05 00:59:00,54.0,28.9,30.22,ENE,74,0.0,1.0,38,0.00,,,0.00,0.0,meteohub,2013-11-05 08:59:00,
2013-11-05 01:04:00,54.0,28.9,30.22,ENE,74,0.0,1.0,38,0.00,,,0.00,0.0,meteohub,2013-11-05 09:04:00,
2013-11-05 01:09:00,53.8,28.8,30.22,ENE,74,0.0,1.0,38,0.00,,,0.00,0.0,meteohub,2013-11-05 09:09:00,
2013-11-05 01:14:00,53.8,28.8,30.22,ENE,74,0.0,1.0,38,0.00,,,0.00,0.0,meteohub,2013-11-05 09:14:00,
2013-11-05 01:19:00,53.4,28.4,30.22,ENE,74,0.0,1.0,38,0.00,,,0.00,0.0,meteohub,2013-11-05 09:19:00,
2013-11-05 01:24:00,53.2,28.9,30.22,ENE,74,0.0,1.0,39,0.00,,,0.00,0.0,meteohub,2013-11-05 09:24:00,
2013-11-05 01:29:00,52.7,29.1,30.22,ENE,74,0.0,1.0,40,0.00,,,0.00,0.0,meteohub,2013-11-05 09:29:00,
2013-11-05 01:34:00,52.2,28.6,30.22,ENE,74,0.0,1.0,40,0.00,,,0.00,0.0,meteohub,2013-11-05 09:34:00,
2013-11-05 01:39:00,52.3,28.8,30.21,ENE,74,0.0,1.0,40,0.00,,,0.00,0.0,meteohub,2013-11-05 09:39:00,
2013-11-05 01:44:00,52.3,28.8,30.21,ENE,74,0.0,1.0,40,0.00,,,0.00,0.0,meteohub,2013-11-05 09:44:00,
2013-11-05 01:49:00,52.5,28.9,30.21,ENE,74,0.0,1.0,40,0.00,,,0.00,0.0,meteohub,2013-11-05 09:49:00,
2013-11-05 01:54:00,52.3,28.8,30.21,ENE,74,0.0,1.0,40,0.00,,,0.00,0.0,meteohub,2013-11-05 09:54:00,
2013-11-05 01:59:00,52.3,28.8,30.21,ENE,74,0.0,0.0,40,0.00,,,0.00,0.0,meteohub,2013-11-05 09:59:00,
2013-11-05 02:04:00,52.3,28.8,30.21,ENE,74,0.0,0.0,40,0.00,,,0.00,0.0,meteohub,2013-11-05 10:04:00,
2013-11-05 02:09:00,52.2,28.6,30.21,ENE,74,0.0,0.0,40,0.00,,,0.00,0.0,meteohub,2013-11-05 10:09:00,
2013-11-05 02:14:00,52.0,28.9,30.21,ENE,74,0.0,0.0,41,0.00,,,0.00,0.0,meteohub,2013-11-05 10:14:00,
2013-11-05 02:19:00,52.3,29.3,30.21,ENE,74,0.0,1.0,41,0.00,,,0.00,0.0,meteohub,2013-11-05 10:19:00,
2013-11-05 02:24:00,52.3,28.8,30.21,ENE,74,0.0,1.0,40,0.00,,,0.00,0.0,meteohub,2013-11-05 10:24:00,
2013-11-05 02:29:00,52.7,29.1,30.21,ENE,74,0.0,1.0,40,0.00,,,0.00,0.0,meteohub,2013-11-05 10:29:00,
2013-11-05 02:34:00,53.1,29.3,30.21,ENE,74,0.0,1.0,40,0.00,,,0.00,0.0,meteohub,2013-11-05 10:34:00,
2013-11-05 02:40:00,53.1,29.3,30.21,ENE,74,0.0,1.0,40,0.00,,,0.00,0.0,meteohub,2013-11-05 10:40:00,
2013-11-05 02:45:00,53.1,29.3,30.21,ENE,74,0.0,0.0,40,0.00,,,0.00,0.0,meteohub,2013-11-05 10:45:00,
2013-11-05 02:50:00,52.9,29.3,30.22,ENE,74,0.0,1.0,40,0.00,,,0.00,0.0,meteohub,2013-11-05 10:50:00,
2013-11-05 02:55:00,53.1,30.0,30.22,ENE,74,0.0,1.0,41,0.00,,,0.00,0.0,meteohub,2013-11-05 10:55:00,
2013-11-05 03:00:00,53.2,30.2,30.21,ENE,74,0.0,1.0,41,0.00,,,0.00,0.0,meteohub,2013-11-05 11:00:00,
2013-11-05 03:05:00,53.2,30.2,30.22,ENE,74,0.0,1.0,41,0.00,,,0.00,0.0,meteohub,2013-11-05 11:05:00,
2013-11-05 03:10:00,53.2,29.5,30.22,ENE,74,0.0,1.0,40,0.00,,,0.00,0.0,meteohub,2013-11-05 11:10:00,
2013-11-05 03:15:00,53.2,29.5,30.23,ENE,74,0.0,0.0,40,0.00,,,0.00,0.0,meteohub,2013-11-05 11:15:00,
2013-11-05 03:20:00,53.1,29.3,30.23,ENE,74,0.0,0.0,40,0.00,,,0.00,0.0,meteohub,2013-11-05 11:20:00,
2013-11-05 03:25:00,52.5,29.5,30.23,ENE,74,0.0,0.0,41,0.00,,,0.00,0.0,meteohub,2013-11-05 11:25:00,
2013-11-05 03:30:00,52.2,29.1,30.23,ENE,74,0.0,0.0,41,0.00,,,0.00,0.0,meteohub,2013-11-05 11:30:00,
2013-11-05 03:35:00,52.2,29.1,30.24,ENE,74,1.0,1.0,41,0.00,,,0.00,0.0,meteohub,2013-11-05 11:35:00,
2013-11-05 03:40:00,52.3,29.3,30.24,ENE,74,0.0,1.0,41,0.00,,,0.00,0.0,meteohub,2013-11-05 11:40:00,
2013-11-05 03:45:00,52.7,29.1,30.24,SE,128,0.0,2.0,40,0.00,,,0.00,0.0,meteohub,2013-11-05 11:45:00,
2013-11-05 03:50:00,52.9,29.3,30.24,SE,128,0.0,2.0,40,0.00,,,0.00,0.0,meteohub,2013-11-05 11:50:00,
2013-11-05 03:55:00,53.1,29.3,30.25,SE,128,0.0,2.0,40,0.00,,,0.00,0.0,meteohub,2013-11-05 11:55:00,
2013-11-05 04:00:00,52.9,29.3,30.25,SE,128,0.0,1.0,40,0.00,,,0.00,0.0,meteohub,2013-11-05 12:00:00,
2013-11-05 04:05:00,52.9,29.3,30.25,SE,128,0.0,1.0,40,0.00,,,0.00,0.0,meteohub,2013-11-05 12:05:00,
2013-11-05 04:10:00,52.9,29.3,30.25,SE,128,0.0,1.0,40,0.00,,,0.00,0.0,meteohub,2013-11-05 12:10:00,
2013-11-05 04:15:00,52.7,29.1,30.25,SE,128,0.0,1.0,40,0.00,,,0.00,0.0,meteohub,2013-11-05 12:15:00,
2013-11-05 04:20:00,52.5,29.5,30.25,SE,128,0.0,1.0,41,0.00,,,0.00,0.0,meteohub,2013-11-05 12:20:00,
2013-11-05 04:25:00,52.3,29.3,30.25,SE,128,1.0,1.0,41,0.00,,,0.00,0.0,meteohub,2013-11-05 12:25:00,
2013-11-05 04:30:00,52.2,29.1,30.25,SE,128,0.0,1.0,41,0.00,,,0.00,0.0,meteohub,2013-11-05 12:30:00,
2013-11-05 04:35:00,52.2,29.1,30.25,SE,128,0.0,1.0,41,0.00,,,0.00,0.0,meteohub,2013-11-05 12:35:00,
2013-11-05 04:40:00,52.2,29.1,30.25,SE,128,0.0,1.0,41,0.00,,,0.00,0.0,meteohub,2013-11-05 12:40:00,
2013-11-05 04:45:00,52.0,29.7,30.26,SE,128,0.0,1.0,42,0.00,,,0.00,0.0,meteohub,2013-11-05 12:45:00,
2013-11-05 04:50:00,52.0,29.7,30.26,SE,128,0.0,0.0,42,0.00,,,0.00,0.0,meteohub,2013-11-05 12:50:00,
2013-11-05 04:56:00,51.6,29.3,30.26,SE,128,0.0,0.0,42,0.00,,,0.00,0.0,meteohub,2013-11-05 12:56:00,
2013-11-05 05:01:00,51.6,29.3,30.25,SE,128,0.0,0.0,42,0.00,,,0.00,0.0,meteohub,2013-11-05 13:01:00,
2013-11-05 05:06:00,51.4,29.1,30.26,SE,128,0.0,0.0,42,0.00,,,0.00,0.0,meteohub,2013-11-05 13:06:00,
2013-11-05 05:11:00,51.4,29.1,30.26,SE,128,0.0,0.0,42,0.00,,,0.00,0.0,meteohub,2013-11-05 13:11:00,
2013-11-05 05:16:00,51.3,28.9,30.26,SE,128,0.0,0.0,42,0.00,,,0.00,0.0,meteohub,2013-11-05 13:16:00,
2013-11-05 05:21:00,51.1,28.8,30.26,SE,128,0.0,1.0,42,0.00,,,0.00,0.0,meteohub,2013-11-05 13:21:00,
2013-11-05 05:26:00,51.1,29.3,30.26,SE,128,0.0,1.0,43,0.00,,,0.00,0.0,meteohub,2013-11-05 13:26:00,
2013-11-05 05:31:00,50.9,29.1,30.27,SE,128,0.0,0.0,43,0.00,,,0.00,0.0,meteohub,2013-11-05 13:31:00,
2013-11-05 05:36:00,50.7,29.1,30.27,SE,128,0.0,0.0,43,0.00,,,0.00,0.0,meteohub,2013-11-05 13:36:00,
2013-11-05 05:41:00,50.5,29.5,30.27,SE,128,0.0,0.0,44,0.00,,,0.00,0.0,meteohub,2013-11-05 13:41:00,
2013-11-05 05:46:00,50.4,29.3,30.27,SE,128,0.0,0.0,44,0.00,,,0.00,0.0,meteohub,2013-11-05 13:46:00,
2013-11-05 05:51:00,50.0,29.5,30.27,SE,128,0.0,0.0,45,0.00,,,0.00,0.0,meteohub,2013-11-05 13:51:00,
2013-11-05 05:56:00,49.6,29.1,30.27,SE,128,0.0,0.0,45,0.00,,,0.00,0.0,meteohub,2013-11-05 13:56:00,
2013-11-05 06:01:00,49.1,29.1,30.27,SE,128,0.0,0.0,46,0.00,,,0.00,0.0,meteohub,2013-11-05 14:01:00,
2013-11-05 06:06:00,48.6,29.3,30.27,SE,128,0.0,1.0,47,0.00,,,0.00,0.0,meteohub,2013-11-05 14:06:00,
2013-11-05 06:11:00,48.2,28.9,30.28,SE,128,0.0,1.0,47,0.00,,,0.00,0.0,meteohub,2013-11-05 14:11:00,
2013-11-05 06:16:00,48.0,28.8,30.28,SE,128,0.0,1.0,47,0.00,,,0.00,0.0,meteohub,2013-11-05 14:16:00,
2013-11-05 06:21:00,48.0,29.3,30.28,SE,128,0.0,0.0,48,0.00,,,0.00,0.0,meteohub,2013-11-05 14:21:00,
2013-11-05 06:26:00,47.8,29.1,30.28,SE,128,0.0,0.0,48,0.00,,,0.00,0.0,meteohub,2013-11-05 14:26:00,
2013-11-05 06:31:00,48.0,29.3,30.29,SE,128,0.0,0.0,48,0.00,,,0.00,0.0,meteohub,2013-11-05 14:31:00,
2013-11-05 06:36:00,48.0,29.3,30.29,SE,128,0.0,1.0,48,0.00,,,0.00,0.0,meteohub,2013-11-05 14:36:00,
2013-11-05 06:41:00,48.4,29.7,30.29,SE,128,0.0,1.0,48,0.00,,,0.00,0.0,meteohub,2013-11-05 14:41:00,
2013-11-05 06:46:00,48.6,29.3,30.29,SE,128,0.0,0.0,47,0.00,,,0.00,5.0,meteohub,2013-11-05 14:46:00,
2013-11-05 06:51:00,48.7,29.5,30.29,SE,128,0.0,0.0,47,0.00,,,0.00,5.0,meteohub,2013-11-05 14:51:00,
2013-11-05 06:56:00,48.7,29.5,30.29,SE,128,0.0,0.0,47,0.00,,,0.00,7.0,meteohub,2013-11-05 14:56:00,
2013-11-05 07:02:00,48.7,29.5,30.29,SE,128,0.0,0.0,47,0.00,,,0.00,7.0,meteohub,2013-11-05 15:02:00,
2013-11-05 07:07:00,48.6,29.3,30.30,SE,128,0.0,0.0,47,0.00,,,0.00,9.0,meteohub,2013-11-05 15:07:00,
2013-11-05 07:12:00,48.6,29.8,30.30,SE,128,0.0,0.0,48,0.00,,,0.00,11.0,meteohub,2013-11-05 15:12:00,
2013-11-05 07:17:00,48.4,29.7,30.30,SE,128,0.0,0.0,48,0.00,,,0.00,11.0,meteohub,2013-11-05 15:17:00,
2013-11-05 07:22:00,48.4,29.7,30.30,SE,128,0.0,0.0,48,0.00,,,0.00,11.0,meteohub,2013-11-05 15:22:00,
2013-11-05 07:27:00,48.4,29.7,30.30,SE,128,0.0,0.0,48,0.00,,,0.00,12.0,meteohub,2013-11-05 15:27:00,
2013-11-05 07:32:00,48.4,29.7,30.30,SE,128,0.0,0.0,48,0.00,,,0.00,12.0,meteohub,2013-11-05 15:32:00,
2013-11-05 07:37:00,48.2,30.0,30.30,SE,128,0.0,0.0,49,0.00,,,0.00,12.0,meteohub,2013-11-05 15:37:00,
2013-11-05 07:42:00,48.0,29.8,30.30,SE,128,0.0,0.0,49,0.00,,,0.00,14.0,meteohub,2013-11-05 15:42:00,
2013-11-05 07:47:00,48.0,30.2,30.30,SE,128,0.0,0.0,50,0.00,,,0.00,14.0,meteohub,2013-11-05 15:47:00,
2013-11-05 07:52:00,48.0,30.2,30.31,SE,128,0.0,0.0,50,0.00,,,0.00,14.0,meteohub,2013-11-05 15:52:00,
2013-11-05 07:57:00,48.2,30.4,30.31,SE,128,0.0,0.0,50,0.00,,,0.00,14.0,meteohub,2013-11-05 15:57:00,
2013-11-05 08:02:00,48.4,30.6,30.31,SE,128,0.0,0.0,50,0.00,,,0.00,16.0,meteohub,2013-11-05 16:02:00,
2013-11-05 08:07:00,48.6,30.7,30.31,SE,128,0.0,0.0,50,0.00,,,0.00,16.0,meteohub,2013-11-05 16:07:00,
2013-11-05 08:12:00,48.7,30.4,30.32,SE,128,0.0,0.0,49,0.00,,,0.00,16.0,meteohub,2013-11-05 16:12:00,
2013-11-05 08:17:00,49.1,30.7,30.32,SE,128,0.0,0.0,49,0.00,,,0.00,16.0,meteohub,2013-11-05 16:17:00,
2013-11-05 08:22:00,49.5,30.6,30.32,SE,128,0.0,0.0,48,0.00,,,0.00,16.0,meteohub,2013-11-05 16:22:00,
2013-11-05 08:27:00,49.8,30.9,30.31,SE,128,0.0,0.0,48,0.00,,,0.00,18.0,meteohub,2013-11-05 16:27:00,
2013-11-05 08:32:00,50.4,30.9,30.32,SE,128,0.0,0.0,47,0.00,,,0.00,18.0,meteohub,2013-11-05 16:32:00,
2013-11-05 08:37:00,50.9,30.4,30.32,SE,128,0.0,0.0,45,0.00,,,0.00,18.0,meteohub,2013-11-05 16:37:00,
2013-11-05 08:42:00,51.4,30.7,30.32,SE,128,0.0,0.0,45,0.00,,,0.00,18.0,meteohub,2013-11-05 16:42:00,
2013-11-05 08:47:00,52.2,32.0,30.32,SE,128,0.0,0.0,46,0.00,,,0.00,18.0,meteohub,2013-11-05 16:47:00,
2013-11-05 08:52:00,52.5,32.4,30.32,SE,128,0.0,0.0,46,0.00,,,0.00,19.0,meteohub,2013-11-05 16:52:00,
2013-11-05 08:57:00,53.1,32.4,30.32,SE,128,0.0,0.0,45,0.00,,,0.00,19.0,meteohub,2013-11-05 16:57:00,
2013-11-05 09:02:00,53.4,32.0,30.32,SE,128,0.0,0.0,44,0.00,,,0.00,21.0,meteohub,2013-11-05 17:02:00,
2013-11-05 09:07:00,54.0,33.1,30.32,SE,128,0.0,1.0,45,0.00,,,0.00,23.0,meteohub,2013-11-05 17:07:00,
2013-11-05 09:12:00,54.7,32.0,30.32,WSW,244,0.0,1.0,42,0.00,,,0.00,25.0,meteohub,2013-11-05 17:12:00,
2013-11-05 09:17:00,55.6,31.6,30.33,WSW,243,0.0,2.0,40,0.00,,,0.00,40.0,meteohub,2013-11-05 17:17:00,
2013-11-05 09:22:00,56.5,32.4,30.33,WSW,243,0.0,2.0,40,0.00,,,0.00,42.0,meteohub,2013-11-05 17:22:00,
2013-11-05 09:27:00,57.4,32.0,30.32,WSW,243,0.0,2.0,38,0.00,,,0.00,295.0,meteohub,2013-11-05 17:27:00,
2013-11-05 09:32:00,58.1,32.5,30.32,WSW,243,0.0,1.0,38,0.00,,,0.00,251.0,meteohub,2013-11-05 17:32:00,
2013-11-05 09:37:00,59.2,32.2,30.32,WSW,243,0.0,1.0,36,0.00,,,0.00,155.0,meteohub,2013-11-05 17:37:00,
2013-11-05 09:42:00,59.9,32.2,30.32,WSW,243,0.0,1.0,35,0.00,,,0.00,297.0,meteohub,2013-11-05 17:42:00,
2013-11-05 09:47:00,61.0,32.4,30.32,East,87,0.0,2.0,34,0.00,,,0.00,383.0,meteohub,2013-11-05 17:47:00,
2013-11-05 09:52:00,61.5,32.9,30.32,East,87,1.0,3.0,34,0.00,,,0.00,304.0,meteohub,2013-11-05 17:52:00,
2013-11-05 09:57:00,62.1,32.5,30.32,ENE,66,2.0,3.0,33,0.00,,,0.00,446.0,meteohub,2013-11-05 17:57:00,
2013-11-05 10:02:00,62.2,32.7,30.32,ENE,67,1.0,3.0,33,0.00,,,0.00,455.0,meteohub,2013-11-05 18:02:00,
2013-11-05 10:07:00,62.4,32.2,30.32,ENE,73,1.0,3.0,32,0.00,,,0.00,468.0,meteohub,2013-11-05 18:07:00,
2013-11-05 10:12:00,62.6,32.4,30.32,ENE,73,0.0,3.0,32,0.00,,,0.00,475.0,meteohub,2013-11-05 18:12:00,
2013-11-05 10:17:00,63.0,32.7,30.32,ENE,67,1.0,3.0,32,0.00,,,0.00,483.0,meteohub,2013-11-05 18:17:00,
2013-11-05 10:22:00,63.0,31.8,30.32,ENE,65,2.0,3.0,31,0.00,,,0.00,494.0,meteohub,2013-11-05 18:22:00,
2013-11-05 10:27:00,63.1,32.0,30.32,ENE,65,1.0,4.0,31,0.00,,,0.00,501.0,meteohub,2013-11-05 18:27:00,
2013-11-05 10:32:00,63.3,32.2,30.32,ENE,65,2.0,4.0,31,0.00,,,0.00,506.0,meteohub,2013-11-05 18:32:00,
2013-11-05 10:37:00,63.5,31.5,30.32,East,81,2.0,4.0,30,0.00,,,0.00,517.0,meteohub,2013-11-05 18:37:00,
2013-11-05 10:42:00,63.7,31.6,30.32,East,80,0.0,3.0,30,0.00,,,0.00,524.0,meteohub,2013-11-05 18:42:00,
2013-11-05 10:47:00,64.2,32.2,30.32,NE,45,0.0,3.0,30,0.00,,,0.00,531.0,meteohub,2013-11-05 18:47:00,
2013-11-05 10:52:00,64.6,31.6,30.32,ENE,60,4.0,4.0,29,0.00,,,0.00,538.0,meteohub,2013-11-05 18:52:00,
2013-11-05 10:57:00,64.8,32.5,30.32,ENE,71,1.0,5.0,30,0.00,,,0.00,541.0,meteohub,2013-11-05 18:57:00,
2013-11-05 11:02:00,64.9,32.7,30.32,ENE,57,0.0,7.0,30,0.00,,,0.00,547.0,meteohub,2013-11-05 19:02:00,
2013-11-05 11:07:00,64.9,32.0,30.32,ENE,71,1.0,7.0,29,0.00,,,0.00,550.0,meteohub,2013-11-05 19:07:00,
2013-11-05 11:12:00,65.1,32.0,30.32,East,100,1.0,7.0,29,0.00,,,0.00,557.0,meteohub,2013-11-05 19:12:00,
2013-11-05 11:17:00,65.3,32.2,30.32,East,99,0.0,4.0,29,0.00,,,0.00,563.0,meteohub,2013-11-05 19:17:00,
2013-11-05 11:22:00,65.8,32.7,30.32,NE,48,1.0,4.0,29,0.00,,,0.00,564.0,meteohub,2013-11-05 19:22:00,
2013-11-05 11:27:00,66.0,32.9,30.32,ENE,77,0.0,3.0,29,0.00,,,0.00,568.0,meteohub,2013-11-05 19:27:00,
2013-11-05 11:32:00,66.4,32.4,30.32,ENE,69,2.0,4.0,28,0.00,,,0.00,571.0,meteohub,2013-11-05 19:32:00,
2013-11-05 11:37:00,66.4,32.4,30.31,ENE,67,3.0,5.0,28,0.00,,,0.00,571.0,meteohub,2013-11-05 19:37:00,
2013-11-05 11:42:00,66.0,32.9,30.31,ENE,76,2.0,5.0,29,0.00,,,0.00,575.0,meteohub,2013-11-05 19:42:00,
2013-11-05 11:47:00,66.0,33.6,30.31,North,11,0.0,4.0,30,0.00,,,0.00,575.0,meteohub,2013-11-05 19:47:00,
2013-11-05 11:52:00,66.4,33.1,30.31,ENE,60,1.0,5.0,29,0.00,,,0.00,577.0,meteohub,2013-11-05 19:52:00,
2013-11-05 11:57:00,66.6,33.3,30.31,ENE,57,1.0,5.0,29,0.00,,,0.00,578.0,meteohub,2013-11-05 19:57:00,
2013-11-05 12:02:00,66.7,32.5,30.31,ENE,78,1.0,5.0,28,0.00,,,0.00,580.0,meteohub,2013-11-05 20:02:00,
2013-11-05 12:07:00,66.9,32.7,30.30,ENE,67,2.0,5.0,28,0.00,,,0.00,580.0,meteohub,2013-11-05 20:07:00,
2013-11-05 12:12:00,67.1,32.9,30.30,ENE,57,0.0,5.0,28,0.00,,,0.00,578.0,meteohub,2013-11-05 20:12:00,
2013-11-05 12:17:00,67.5,33.3,30.30,West,269,1.0,4.0,28,0.00,,,0.00,578.0,meteohub,2013-11-05 20:17:00,
2013-11-05 12:22:00,67.6,33.4,30.30,ENE,59,0.0,4.0,28,0.00,,,0.00,577.0,meteohub,2013-11-05 20:22:00,
2013-11-05 12:27:00,67.6,33.4,30.30,ENE,71,2.0,4.0,28,0.00,,,0.00,575.0,meteohub,2013-11-05 20:27:00,
2013-11-05 12:32:00,67.8,33.4,30.30,WSW,240,1.0,4.0,28,0.00,,,0.00,571.0,meteohub,2013-11-05 20:32:00,
2013-11-05 12:37:00,68.2,33.8,30.30,WNW,285,0.0,4.0,28,0.00,,,0.00,568.0,meteohub,2013-11-05 20:37:00,
2013-11-05 12:42:00,68.7,34.3,30.30,WNW,290,1.0,4.0,28,0.00,,,0.00,568.0,meteohub,2013-11-05 20:42:00,
2013-11-05 12:47:00,69.1,33.6,30.29,East,93,0.0,4.0,27,0.00,,,0.00,564.0,meteohub,2013-11-05 20:47:00,
2013-11-05 12:52:00,69.3,33.8,30.29,East,93,1.0,3.0,27,0.00,,,0.00,559.0,meteohub,2013-11-05 20:52:00,
2013-11-05 12:57:00,69.3,33.8,30.29,East,93,1.0,3.0,27,0.00,,,0.00,559.0,meteohub,2013-11-05 20:57:00,
2013-11-05 13:02:00,69.1,32.7,30.29,ENE,59,1.0,3.0,26,0.00,,,0.00,554.0,meteohub,2013-11-05 21:02:00,
2013-11-05 13:07:00,68.7,32.4,30.29,ENE,70,3.0,5.0,26,0.00,,,0.00,554.0,meteohub,2013-11-05 21:07:00,
2013-11-05 13:12:00,69.1,33.6,30.29,NNW,338,0.0,5.0,27,0.00,,,0.00,552.0,meteohub,2013-11-05 21:12:00,
2013-11-05 13:17:00,69.4,34.0,30.28,NE,56,0.0,5.0,27,0.00,,,0.00,548.0,meteohub,2013-11-05 21:17:00,
2013-11-05 13:22:00,69.6,34.2,30.29,NNE,24,0.0,4.0,27,0.00,,,0.00,513.0,meteohub,2013-11-05 21:22:00,
2013-11-05 13:27:00,70.0,34.5,30.28,NW,312,0.0,3.0,27,0.00,,,0.00,448.0,meteohub,2013-11-05 21:27:00,
2013-11-05 13:32:00,70.2,33.6,30.28,ENE,61,0.0,4.0,26,0.00,,,0.00,489.0,meteohub,2013-11-05 21:32:00,
2013-11-05 13:37:00,70.0,33.4,30.28,ENE,61,0.0,4.0,26,0.00,,,0.00,513.0,meteohub,2013-11-05 21:37:00,
2013-11-05 13:42:00,70.2,34.7,30.27,SW,214,1.0,3.0,27,0.00,,,0.00,508.0,meteohub,2013-11-05 21:42:00,
2013-11-05 13:47:00,70.3,33.8,30.27,ENE,61,3.0,3.0,26,0.00,,,0.00,499.0,meteohub,2013-11-05 21:47:00,
2013-11-05 13:52:00,70.5,34.0,30.27,ENE,63,0.0,3.0,26,0.00,,,0.00,499.0,meteohub,2013-11-05 21:52:00,
2013-11-05 13:57:00,70.7,35.1,30.27,NNW,327,1.0,3.0,27,0.00,,,0.00,494.0,meteohub,2013-11-05 21:57:00,
2013-11-05 14:02:00,70.9,34.3,30.27,ENE,61,0.0,3.0,26,0.00,,,0.00,434.0,meteohub,2013-11-05 22:02:00,
2013-11-05 14:07:00,70.9,34.3,30.27,NE,55,0.0,3.0,26,0.00,,,0.00,308.0,meteohub,2013-11-05 22:07:00,
2013-11-05 14:12:00,70.9,34.3,30.27,NE,55,0.0,2.0,26,0.00,,,0.00,459.0,meteohub,2013-11-05 22:12:00,
2013-11-05 14:17:00,70.7,34.2,30.27,ENE,71,2.0,2.0,26,0.00,,,0.00,466.0,meteohub,2013-11-05 22:17:00,
2013-11-05 14:22:00,70.9,35.2,30.27,North,350,0.0,3.0,27,0.00,,,0.00,455.0,meteohub,2013-11-05 22:22:00,
2013-11-05 14:27:00,70.9,35.2,30.27,North,355,0.0,3.0,27,0.00,,,0.00,445.0,meteohub,2013-11-05 22:27:00,
2013-11-05 14:32:00,71.1,34.5,30.27,NNW,329,0.0,3.0,26,0.00,,,0.00,415.0,meteohub,2013-11-05 22:32:00,
2013-11-05 14:37:00,71.4,34.7,30.27,ENE,73,3.0,3.0,26,0.00,,,0.00,378.0,meteohub,2013-11-05 22:37:00,
2013-11-05 14:42:00,71.2,34.5,30.27,ENE,66,0.0,4.0,26,0.00,,,0.00,457.0,meteohub,2013-11-05 22:42:00,
2013-11-05 14:47:00,71.4,34.7,30.27,ESE,107,0.0,4.0,26,0.00,,,0.00,434.0,meteohub,2013-11-05 22:47:00,
2013-11-05 14:52:00,71.4,34.7,30.27,East,88,1.0,4.0,26,0.00,,,0.00,410.0,meteohub,2013-11-05 22:52:00,
2013-11-05 14:57:00,71.4,34.7,30.27,East,88,0.0,3.0,26,0.00,,,0.00,394.0,meteohub,2013-11-05 22:57:00,
2013-11-05 15:02:00,71.6,34.9,30.27,East,88,0.0,3.0,26,0.00,,,0.00,371.0,meteohub,2013-11-05 23:02:00,
2013-11-05 15:07:00,71.8,35.1,30.27,East,88,1.0,2.0,26,0.00,,,0.00,345.0,meteohub,2013-11-05 23:07:00,
2013-11-05 15:12:00,71.6,34.9,30.27,ENE,76,1.0,2.0,26,0.00,,,0.00,327.0,meteohub,2013-11-05 23:12:00,
2013-11-05 15:17:00,71.2,34.5,30.27,ENE,76,0.0,3.0,26,0.00,,,0.00,311.0,meteohub,2013-11-05 23:17:00,
2013-11-05 15:22:00,71.2,34.5,30.27,ENE,76,0.0,3.0,26,0.00,,,0.00,279.0,meteohub,2013-11-05 23:22:00,
2013-11-05 15:27:00,71.2,34.5,30.27,ENE,76,0.0,3.0,26,0.00,,,0.00,272.0,meteohub,2013-11-05 23:27:00,
2013-11-05 15:32:00,71.2,34.5,30.27,ENE,76,0.0,1.0,26,0.00,,,0.00,199.0,meteohub,2013-11-05 23:32:00,
2013-11-05 15:37:00,71.2,34.5,30.27,ENE,76,0.0,1.0,26,0.00,,,0.00,239.0,meteohub,2013-11-05 23:37:00,
2013-11-05 15:42:00,71.4,34.7,30.27,ENE,76,0.0,1.0,26,0.00,,,0.00,225.0,meteohub,2013-11-05 23:42:00,
2013-11-05 15:47:00,71.4,34.7,30.27,ENE,76,1.0,1.0,26,0.00,,,0.00,207.0,meteohub,2013-11-05 23:47:00,
2013-11-05 15:52:00,71.2,34.5,30.27,ENE,76,0.0,3.0,26,0.00,,,0.00,188.0,meteohub,2013-11-05 23:52:00,
2013-11-05 15:57:00,71.1,34.5,30.27,ENE,76,1.0,3.0,26,0.00,,,0.00,171.0,meteohub,2013-11-05 23:57:00,
2013-11-05 16:02:00,71.1,34.5,30.27,ENE,76,0.0,3.0,26,0.00,,,0.00,153.0,meteohub,2013-11-06 00:02:00,
2013-11-05 16:07:00,71.1,34.5,30.27,ENE,76,0.0,1.0,26,0.00,,,0.00,135.0,meteohub,2013-11-06 00:07:00,
2013-11-05 16:12:00,70.9,34.3,30.27,ENE,76,0.0,1.0,26,0.00,,,0.00,121.0,meteohub,2013-11-06 00:12:00,
2013-11-05 16:17:00,70.7,34.2,30.27,ENE,76,0.0,1.0,26,0.00,,,0.00,104.0,meteohub,2013-11-06 00:17:00,
2013-11-05 16:22:00,70.5,34.0,30.27,ENE,76,0.0,1.0,26,0.00,,,0.00,90.0,meteohub,2013-11-06 00:22:00,
2013-11-05 16:27:00,70.3,34.7,30.27,ENE,76,0.0,1.0,27,0.00,,,0.00,74.0,meteohub,2013-11-06 00:27:00,
2013-11-05 16:32:00,70.3,34.7,30.27,ENE,76,0.0,1.0,27,0.00,,,0.00,62.0,meteohub,2013-11-06 00:32:00,
2013-11-05 16:37:00,70.2,34.7,30.27,ENE,76,0.0,1.0,27,0.00,,,0.00,47.0,meteohub,2013-11-06 00:37:00,
2013-11-05 16:42:00,70.2,34.7,30.27,ENE,76,1.0,1.0,27,0.00,,,0.00,35.0,meteohub,2013-11-06 00:42:00,
2013-11-05 16:47:00,69.6,34.2,30.27,ENE,76,0.0,1.0,27,0.00,,,0.00,26.0,meteohub,2013-11-06 00:47:00,
2013-11-05 16:52:00,69.3,34.7,30.27,ENE,76,0.0,1.0,28,0.00,,,0.00,12.0,meteohub,2013-11-06 00:52:00,
2013-11-05 16:57:00,69.1,34.5,30.27,ENE,76,0.0,1.0,28,0.00,,,0.00,7.0,meteohub,2013-11-06 00:57:00,
2013-11-05 17:02:00,68.5,34.2,30.27,ENE,76,0.0,1.0,28,0.00,,,0.00,5.0,meteohub,2013-11-06 01:02:00,
2013-11-05 17:07:00,68.0,34.5,30.27,ENE,76,0.0,1.0,29,0.00,,,0.00,0.0,meteohub,2013-11-06 01:07:00,
2013-11-05 17:12:00,67.6,34.2,30.27,ENE,76,0.0,1.0,29,0.00,,,0.00,0.0,meteohub,2013-11-06 01:12:00,
2013-11-05 17:17:00,67.5,34.2,30.27,ENE,76,0.0,1.0,29,0.00,,,0.00,0.0,meteohub,2013-11-06 01:17:00,
2013-11-05 17:22:00,67.3,34.0,30.27,ENE,76,0.0,1.0,29,0.00,,,0.00,0.0,meteohub,2013-11-06 01:22:00,
2013-11-05 17:27:00,66.9,33.6,30.27,ENE,76,0.0,1.0,29,0.00,,,0.00,0.0,meteohub,2013-11-06 01:27:00,
2013-11-05 17:32:00,66.7,34.3,30.28,ENE,76,0.0,0.0,30,0.00,,,0.00,0.0,meteohub,2013-11-06 01:32:00,
2013-11-05 17:37:00,66.4,34.0,30.28,ENE,76,0.0,0.0,30,0.00,,,0.00,0.0,meteohub,2013-11-06 01:37:00,
2013-11-05 17:42:00,65.7,34.2,30.28,ENE,76,0.0,0.0,31,0.00,,,0.00,0.0,meteohub,2013-11-06 01:42:00,
2013-11-05 17:47:00,65.1,33.8,30.28,ENE,76,0.0,0.0,31,0.00,,,0.00,0.0,meteohub,2013-11-06 01:47:00,
2013-11-05 17:52:00,64.6,34.0,30.29,ENE,76,0.0,0.0,32,0.00,,,0.00,0.0,meteohub,2013-11-06 01:52:00,
2013-11-05 17:57:00,63.9,33.4,30.29,ENE,76,0.0,0.0,32,0.00,,,0.00,0.0,meteohub,2013-11-06 01:57:00,
2013-11-05 18:02:00,63.5,33.8,30.29,ENE,76,0.0,0.0,33,0.00,,,0.00,0.0,meteohub,2013-11-06 02:02:00,
2013-11-05 18:07:00,63.1,33.6,30.29,ENE,76,0.0,0.0,33,0.00,,,0.00,0.0,meteohub,2013-11-06 02:07:00,
2013-11-05 18:12:00,63.0,34.2,30.29,ENE,76,0.0,0.0,34,0.00,,,0.00,0.0,meteohub,2013-11-06 02:12:00,
2013-11-05 18:17:00,62.4,33.6,30.29,ENE,76,0.0,0.0,34,0.00,,,0.00,0.0,meteohub,2013-11-06 02:17:00,
2013-11-05 18:22:00,61.9,34.0,30.29,ENE,76,0.0,0.0,35,0.00,,,0.00,0.0,meteohub,2013-11-06 02:22:00,
2013-11-05 18:27:00,61.2,34.0,30.29,ENE,76,0.0,0.0,36,0.00,,,0.00,0.0,meteohub,2013-11-06 02:27:00,
2013-11-05 18:32:00,60.6,34.2,30.30,ENE,76,0.0,0.0,37,0.00,,,0.00,0.0,meteohub,2013-11-06 02:32:00,
2013-11-05 18:37:00,60.3,34.5,30.30,ENE,76,0.0,0.0,38,0.00,,,0.00,0.0,meteohub,2013-11-06 02:37:00,
2013-11-05 18:42:00,59.7,34.0,30.30,ENE,76,0.0,0.0,38,0.00,,,0.00,0.0,meteohub,2013-11-06 02:42:00,
2013-11-05 18:47:00,59.4,34.3,30.30,ENE,76,0.0,0.0,39,0.00,,,0.00,0.0,meteohub,2013-11-06 02:47:00,
2013-11-05 18:52:00,58.8,34.0,30.30,ENE,76,0.0,0.0,39,0.00,,,0.00,0.0,meteohub,2013-11-06 02:52:00,
2013-11-05 18:57:00,58.6,34.3,30.31,ENE,76,0.0,0.0,40,0.00,,,0.00,0.0,meteohub,2013-11-06 02:57:00,
2013-11-05 19:02:00,58.5,34.2,30.30,ENE,76,0.0,0.0,40,0.00,,,0.00,0.0,meteohub,2013-11-06 03:02:00,
2013-11-05 19:07:00,58.3,34.0,30.30,ENE,76,0.0,0.0,40,0.00,,,0.00,0.0,meteohub,2013-11-06 03:07:00,
2013-11-05 19:12:00,58.1,34.0,30.31,ENE,76,0.0,0.0,40,0.00,,,0.00,0.0,meteohub,2013-11-06 03:12:00,
2013-11-05 19:17:00,57.9,33.8,30.31,ENE,76,0.0,0.0,40,0.00,,,0.00,0.0,meteohub,2013-11-06 03:17:00,
2013-11-05 19:22:00,57.9,34.3,30.31,ENE,76,0.0,0.0,41,0.00,,,0.00,0.0,meteohub,2013-11-06 03:22:00,
2013-11-05 19:27:00,57.7,34.9,30.31,ENE,76,0.0,0.0,42,0.00,,,0.00,0.0,meteohub,2013-11-06 03:27:00,
2013-11-05 19:32:00,57.4,33.8,30.31,ENE,76,0.0,0.0,41,0.00,,,0.00,0.0,meteohub,2013-11-06 03:32:00,
2013-11-05 19:37:00,57.2,33.6,30.31,ENE,76,0.0,1.0,41,0.00,,,0.00,0.0,meteohub,2013-11-06 03:37:00,
2013-11-05 19:42:00,57.0,34.2,30.31,ENE,76,0.0,1.0,42,0.00,,,0.00,0.0,meteohub,2013-11-06 03:42:00,
2013-11-05 19:47:00,56.8,34.0,30.31,ENE,76,0.0,1.0,42,0.00,,,0.00,0.0,meteohub,2013-11-06 03:47:00,
2013-11-05 19:53:00,56.7,33.8,30.32,ENE,76,0.0,0.0,42,0.00,,,0.00,0.0,meteohub,2013-11-06 03:53:00,
2013-11-05 19:58:00,56.5,33.6,30.32,ENE,76,0.0,0.0,42,0.00,,,0.00,0.0,meteohub,2013-11-06 03:58:00,
2013-11-05 20:03:00,56.1,34.0,30.32,ENE,76,0.0,0.0,43,0.00,,,0.00,0.0,meteohub,2013-11-06 04:03:00,
2013-11-05 20:08:00,55.9,34.3,30.32,ENE,76,0.0,0.0,44,0.00,,,0.00,0.0,meteohub,2013-11-06 04:08:00,
2013-11-05 20:13:00,55.8,34.2,30.32,ENE,76,0.0,0.0,44,0.00,,,0.00,0.0,meteohub,2013-11-06 04:13:00,
2013-11-05 20:18:00,55.6,34.0,30.32,ENE,76,0.0,0.0,44,0.00,,,0.00,0.0,meteohub,2013-11-06 04:18:00,
2013-11-05 20:23:00,55.4,33.8,30.32,ENE,76,0.0,0.0,44,0.00,,,0.00,0.0,meteohub,2013-11-06 04:23:00,
2013-11-05 20:28:00,55.2,33.6,30.32,ENE,76,0.0,0.0,44,0.00,,,0.00,0.0,meteohub,2013-11-06 04:28:00,
2013-11-05 20:33:00,55.0,34.2,30.33,ENE,76,0.0,0.0,45,0.00,,,0.00,0.0,meteohub,2013-11-06 04:33:00,
2013-11-05 20:38:00,54.9,34.5,30.33,ENE,76,0.0,0.0,46,0.00,,,0.00,0.0,meteohub,2013-11-06 04:38:00,
2013-11-05 20:43:00,54.9,34.5,30.33,ENE,76,0.0,1.0,46,0.00,,,0.00,0.0,meteohub,2013-11-06 04:43:00,
2013-11-05 20:48:00,55.0,34.2,30.33,ENE,76,0.0,1.0,45,0.00,,,0.00,0.0,meteohub,2013-11-06 04:48:00,
2013-11-05 20:53:00,55.0,34.7,30.33,ENE,76,0.0,1.0,46,0.00,,,0.00,0.0,meteohub,2013-11-06 04:53:00,
2013-11-05 20:58:00,54.9,34.5,30.33,ENE,76,0.0,1.0,46,0.00,,,0.00,0.0,meteohub,2013-11-06 04:58:00,
2013-11-05 21:01:00,54.9,34.5,30.33,ENE,76,0.0,0.0,46,0.00,,,0.00,0.0,meteohub,2013-11-06 05:01:00,
2013-11-05 21:02:00,54.9,34.5,30.33,ENE,76,0.0,0.0,46,0.00,,,0.00,0.0,meteohub,2013-11-06 05:02:00,
2013-11-05 21:03:00,54.7,34.3,30.33,ENE,76,0.0,0.0,46,0.00,,,0.00,0.0,meteohub,2013-11-06 05:03:00,
2013-11-05 21:04:00,54.7,34.3,30.34,ENE,76,0.0,0.0,46,0.00,,,0.00,0.0,meteohub,2013-11-06 05:04:00,
2013-11-05 21:05:00,54.7,34.3,30.34,ENE,76,0.0,0.0,46,0.00,,,0.00,0.0,meteohub,2013-11-06 05:05:00,
2013-11-05 21:06:00,54.7,34.3,30.34,ENE,76,0.0,0.0,46,0.00,,,0.00,0.0,meteohub,2013-11-06 05:06:00,
2013-11-05 21:11:00,54.3,34.0,30.34,ENE,76,0.0,0.0,46,0.00,,,0.00,0.0,meteohub,2013-11-06 05:11:00,
2013-11-05 21:16:00,54.1,34.3,30.34,ENE,76,0.0,0.0,47,0.00,,,0.00,0.0,meteohub,2013-11-06 05:16:00,
2013-11-05 21:21:00,54.1,34.3,30.34,ENE,76,0.0,0.0,47,0.00,,,0.00,0.0,meteohub,2013-11-06 05:21:00,
2013-11-05 21:26:00,54.3,34.5,30.34,ENE,76,0.0,1.0,47,0.00,,,0.00,0.0,meteohub,2013-11-06 05:26:00,
2013-11-05 21:31:00,54.3,34.5,30.34,ENE,76,0.0,1.0,47,0.00,,,0.00,0.0,meteohub,2013-11-06 05:31:00,
2013-11-05 21:36:00,54.3,34.0,30.34,ENE,76,0.0,1.0,46,0.00,,,0.00,0.0,meteohub,2013-11-06 05:36:00,
2013-11-05 21:41:00,54.3,34.5,30.35,ENE,76,0.0,0.0,47,0.00,,,0.00,0.0,meteohub,2013-11-06 05:41:00,
2013-11-05 21:46:00,54.1,34.3,30.35,ENE,76,0.0,0.0,47,0.00,,,0.00,0.0,meteohub,2013-11-06 05:46:00,
2013-11-05 21:51:00,54.1,34.3,30.35,ENE,76,0.0,0.0,47,0.00,,,0.00,0.0,meteohub,2013-11-06 05:51:00,
2013-11-05 21:56:00,54.0,34.2,30.35,ENE,76,0.0,0.0,47,0.00,,,0.00,0.0,meteohub,2013-11-06 05:56:00,
2013-11-05 22:01:00,54.0,34.2,30.35,ENE,76,0.0,0.0,47,0.00,,,0.00,0.0,meteohub,2013-11-06 06:01:00,
2013-11-05 22:06:00,53.8,34.0,30.35,ENE,76,0.0,0.0,47,0.00,,,0.00,0.0,meteohub,2013-11-06 06:06:00,
2013-11-05 22:12:00,53.6,34.3,30.35,ENE,76,0.0,0.0,48,0.00,,,0.00,0.0,meteohub,2013-11-06 06:12:00,
2013-11-05 22:17:00,53.4,34.7,30.35,ENE,76,0.0,0.0,49,0.00,,,0.00,0.0,meteohub,2013-11-06 06:17:00,
2013-11-05 22:22:00,53.2,34.0,30.35,ENE,76,0.0,0.0,48,0.00,,,0.00,0.0,meteohub,2013-11-06 06:22:00,
2013-11-05 22:27:00,53.2,34.5,30.36,ENE,76,0.0,0.0,49,0.00,,,0.00,0.0,meteohub,2013-11-06 06:27:00,
2013-11-05 22:32:00,53.1,34.3,30.36,ENE,76,0.0,0.0,49,0.00,,,0.00,0.0,meteohub,2013-11-06 06:32:00,
2013-11-05 22:37:00,53.1,34.3,30.36,ENE,76,0.0,0.0,49,0.00,,,0.00,0.0,meteohub,2013-11-06 06:37:00,
2013-11-05 22:42:00,53.1,34.3,30.36,ENE,76,0.0,0.0,49,0.00,,,0.00,0.0,meteohub,2013-11-06 06:42:00,
2013-11-05 22:47:00,53.1,34.3,30.36,ENE,76,0.0,0.0,49,0.00,,,0.00,0.0,meteohub,2013-11-06 06:47:00,
2013-11-05 22:52:00,53.1,34.3,30.36,ENE,76,0.0,0.0,49,0.00,,,0.00,0.0,meteohub,2013-11-06 06:52:00,
2013-11-05 22:57:00,53.1,34.3,30.35,ENE,76,0.0,0.0,49,0.00,,,0.00,0.0,meteohub,2013-11-06 06:57:00,
2013-11-05 23:02:00,53.1,34.3,30.36,ENE,76,0.0,0.0,49,0.00,,,0.00,0.0,meteohub,2013-11-06 07:02:00,
2013-11-05 23:07:00,52.9,34.2,30.36,ENE,76,0.0,0.0,49,0.00,,,0.00,0.0,meteohub,2013-11-06 07:07:00,
2013-11-05 23:12:00,52.9,34.2,30.35,ENE,76,0.0,0.0,49,0.00,,,0.00,0.0,meteohub,2013-11-06 07:12:00,
2013-11-05 23:17:00,52.9,34.2,30.35,ENE,76,0.0,0.0,49,0.00,,,0.00,0.0,meteohub,2013-11-06 07:17:00,
2013-11-05 23:22:00,52.9,34.2,30.35,ENE,76,0.0,0.0,49,0.00,,,0.00,0.0,meteohub,2013-11-06 07:22:00,
2013-11-05 23:27:00,52.5,34.3,30.35,ENE,76,0.0,0.0,50,0.00,,,0.00,0.0,meteohub,2013-11-06 07:27:00,
2013-11-05 23:32:00,52.5,34.3,30.35,ENE,76,0.0,0.0,50,0.00,,,0.00,0.0,meteohub,2013-11-06 07:32:00,
2013-11-05 23:37:00,52.2,34.5,30.35,ENE,76,0.0,0.0,51,0.00,,,0.00,0.0,meteohub,2013-11-06 07:37:00,
2013-11-05 23:43:00,52.0,34.3,30.35,ENE,76,0.0,1.0,51,0.00,,,0.00,0.0,meteohub,2013-11-06 07:43:00,
2013-11-05 23:48:00,52.2,34.5,30.35,ENE,76,0.0,1.0,51,0.00,,,0.00,0.0,meteohub,2013-11-06 07:48:00,
2013-11-05 23:53:00,52.2,34.2,30.35,ENE,76,0.0,1.0,50,0.00,,,0.00,0.0,meteohub,2013-11-06 07:53:00,
2013-11-05 23:58:00,52.0,34.0,30.35,ENE,76,0.0,1.0,50,0.00,,,0.00,0.0,meteohub,2013-11-06 07:58:00,